Flag for U.S.A. Weather past 2 weeks in Canton, Ohio, U.S.A.

Now
27 °F

Passing clouds.


Feels Like: 20 °F
Forecast: 28 / 44 °F
Wind: 7 mph from East

Location: Akron-Canton Regional Airport

Current Time: Dec 21, 2014 at 9:50:00 PM

Latest Report: Dec 21, 2014 at 8:51 PM


Visibility: 7 mi

Pressure: 30.24 "Hg

Humidity: 75%

Dew point: 20 °F

Location of CantonLocation

Historic Weather in Canton — Graph

°F

Canton temperature yesterday

Maximum temperature yesterday: 30 °F (at 11:51 AM)
Minimum temperature yesterday: 28 °F (at 12:51 AM)
Average temperature yesterday: 29 °F

Past Weeks' High & Low Weather Summary

 TemperatureHumidityPressure
High51 °F (Dec 15, 12:51 PM)93% (Dec 13, 3:51 AM)30.65 "Hg (Dec 13, 3:51 AM)
Low24 °F (Dec 11, 8:51 AM)32% (Dec 8, 1:51 PM)29.72 "Hg (Dec 16, 12:51 PM)
Average34 °F76%30.17 "Hg
* Reported Dec 6 8:51 PM — Dec 21 8:51 PM, Canton, Weather by CustomWeather, © 2014

Note: Actual official high and low records may vary slightly from our data, if they occured in-between our weather recording intervals... More about our weather records

Advertising

Canton weather history for previous 24 hours

 ConditionsComfort  
Time TempWeatherWind HumidityBarometerVisibility
8:51 PM
Dec 21
27 °FPassing clouds.7 mph75%30.24 "Hg7 mi
7:51 PM27 °FPassing clouds.6 mph72%30.25 "Hg7 mi
6:51 PM28 °FOvercast.5 mph72%30.27 "Hg8 mi
5:51 PM30 °FOvercast.5 mph66%30.27 "Hg8 mi
4:51 PM31 °FOvercast.7 mph64%30.27 "Hg7 mi
3:51 PM31 °FOvercast.7 mph67%30.27 "Hg6 mi
2:51 PM31 °FOvercast.3 mph67%30.27 "Hg6 mi
1:51 PM31 °FOvercast.3 mph69%30.29 "Hg6 mi
12:51 PM30 °FOvercast.5 mph69%30.30 "Hg6 mi
11:51 AM30 °FOvercast.6 mph72%30.33 "Hg6 mi
10:51 AM30 °FOvercast.3 mph69%30.35 "Hg6 mi
9:51 AM30 °FOvercast.No wind72%30.34 "Hg6 mi
8:51 AM29 °FIce fog.No wind79%30.34 "Hg4 mi
7:51 AM29 °FOvercast.No wind79%30.34 "Hg4 mi
6:51 AM28 °FOvercast.No wind81%30.34 "Hg6 mi
5:51 AM29 °FOvercast.No wind79%30.32 "Hg6 mi
4:51 AM28 °FOvercast.No wind78%30.31 "Hg6 mi
3:51 AM28 °FOvercast.No wind78%30.32 "Hg6 mi
2:51 AM27 °FOvercast.No wind78%30.32 "Hg7 mi
1:51 AM27 °FOvercast.No wind81%30.30 "Hg7 mi
12:51 AM26 °FPassing clouds.No wind81%30.29 "Hg8 mi
11:51 PM
Dec 20
29 °FLight snow. Overcast.No wind75%30.29 "Hg8 mi
10:51 PM29 °FOvercast.No wind75%30.30 "Hg10 mi
9:51 PM29 °FOvercast.No wind79%30.31 "Hg10 mi
Weather by CustomWeather, © 2014

See weather overviewHow to use our weather pages